GW1852 Weather Reports


Display with metric or nautical units.
time (UTC)temp
F
wind
direction
speed
MPH
gust
MPH
rain 1hr
in
rain 24hr
in
rain mn
in
humidity
%
barometer
mb
20260510173015 68 224 7.0 10.0 0.00 0.00 0.00 36 1016.0
20260510171513 68 224 6.0 10.0 0.00 0.00 0.00 38 1016.2
20260510170010 68 213 2.0 4.0 0.00 0.00 0.00 35 1016.4
20260510164508 67 120 2.0 3.0 0.00 0.00 0.00 36 1016.5
20260510163003 63 116 0.0 3.0 0.00 0.00 0.00 46 1016.7
20260510161559 61 168 1.0 3.0 0.00 0.00 0.00 51 1016.8
20260510154554 56 120 2.0 4.0 0.00 0.00 0.00 55 1017.2
20260510153050 54 122 1.0 3.0 0.00 0.00 0.00 61 1017.4
20260510151548 54 153 1.0 2.0 0.00 0.00 0.00 61 1017.4
20260510150044 52 153 0.0 2.0 0.00 0.00 0.00 64 1017.7
20260510144543 50 232 0.0 3.0 0.00 0.00 0.00 64 1017.8
20260510143037 48 222 3.0 6.0 0.00 0.00 0.00 67 1017.9
20260510141538 47 244 1.0 8.0 0.00 0.00 0.00 73 1018.1
20260510140035 45 261 4.0 7.0 0.00 0.00 0.00 72 1018.0
20260510134540 44 232 2.0 4.0 0.00 0.00 0.00 76 1018.0
20260510133034 43 224 1.0 3.0 0.00 0.00 0.00 77 1018.1
20260510131533 42 230 2.0 5.0 0.00 0.00 0.00 78 1018.2
20260510130031 42 248 3.0 7.0 0.00 0.00 0.00 78 1018.2
20260510124528 42 239 3.0 6.0 0.00 0.00 0.00 77 1018.2
20260510123026 41 240 2.0 5.0 0.00 0.00 0.00 79 1018.1
20260510121525 42 246 3.0 6.0 0.00 0.00 0.00 79 1018.1
20260510120022 41 243 2.0 5.0 0.00 0.00 0.00 80 1018.1
20260510114520 42 255 1.0 3.0 0.00 0.00 0.00 82 1018.2
20260510113018 41 260 2.0 4.0 0.00 0.00 0.00 83 1018.2
20260510111517 42 244 1.0 3.0 0.00 0.00 0.00 82 1018.2
20260510110020 42 262 1.0 5.0 0.00 0.00 0.00 81 1018.3
20260510104510 43 257 2.0 4.0 0.00 0.00 0.00 81 1018.3
20260510103008 43 243 1.0 4.0 0.00 0.00 0.00 79 1018.3
20260510101505 44 226 1.0 2.0 0.00 0.00 0.00 78 1018.4
20260510100003 44 220 0.0 4.0 0.00 0.00 0.00 79 1018.4
20260510094601 45 226 1.0 3.0 0.00 0.00 0.00 75 1018.4
20260510093101 45 257 1.0 3.0 0.00 0.00 0.00 75 1018.4
20260510091556 46 243 0.0 2.0 0.00 0.00 0.00 74 1018.4
20260510090053 47 56 0.0 0.0 0.00 0.00 0.00 74 1018.4
20260510084550 47 56 0.0 1.0 0.00 0.00 0.00 73 1018.5
20260510083053 48 268 1.0 4.0 0.00 0.00 0.00 71 1018.4
20260510081547 50 250 0.0 0.0 0.00 0.00 0.00 70 1018.4
20260510080046 50 225 0.0 0.0 0.00 0.00 0.00 76 1018.4
20260510074538 51 225 0.0 0.0 0.00 0.00 0.00 71 1018.4
20260510073034 51 149 0.0 0.0 0.00 0.00 0.00 69 1018.4
20260510071543 52 160 0.0 0.0 0.00 0.00 0.00 69 1018.4
20260510070031 52 153 0.0 0.0 0.00 0.00 0.00 68 1018.4
20260510064528 53 147 0.0 0.0 0.00 0.00 0.00 70 1018.4
20260510063028 53 127 0.0 0.0 0.00 0.00 0.00 69 1018.5
20260510061537 53 147 0.0 0.0 0.00 0.00 0.00 69 1018.4
20260510060022 53 150 0.0 0.0 0.00 0.00 0.00 68 1018.5
20260510054520 54 155 0.0 0.0 0.00 0.00 0.00 67 1018.3
20260510053020 54 151 0.0 0.0 0.00 0.00 0.00 67 1018.4
20260510051520 55 160 0.0 0.0 0.00 0.00 0.00 65 1018.3
20260510050024 56 153 0.0 0.0 0.00 0.00 0.00 63 1018.3
20260510044519 56 122 0.0 0.0 0.00 0.00 0.00 60 1018.3
20260510043022 57 120 0.0 0.0 0.00 0.00 0.00 57 1018.3
20260510041516 57 101 0.0 0.0 0.00 0.00 0.00 61 1018.1
20260510040015 59 215 0.0 0.0 0.00 0.00 0.00 60 1018.1
20260510034516 59 160 0.0 0.0 0.00 0.00 0.00 52 1017.9
20260510033015 59 120 0.0 0.0 0.00 0.00 0.00 52 1017.8
20260510031532 60 153 0.0 0.0 0.00 0.00 0.00 55 1017.6
20260510030020 61 154 0.0 0.0 0.00 0.00 0.00 54 1017.4
20260510024521 62 160 0.0 1.0 0.00 0.00 0.00 51 1017.3
20260510023013 62 131 1.0 2.0 0.00 0.00 0.00 50 1017.2
20260510021512 63 158 0.0 1.0 0.00 0.00 0.00 46 1017.1
20260510020014 63 158 0.0 2.0 0.00 0.00 0.00 47 1017.1
20260510014512 63 115 0.0 1.0 0.00 0.00 0.00 49 1017.1
20260510013010 64 185 0.0 2.0 0.00 0.00 0.00 41 1017.1
20260510011510 65 185 1.0 2.0 0.00 0.00 0.00 42 1017.1
20260510010009 66 185 0.0 1.0 0.00 0.00 0.00 39 1017.2
20260510004510 65 181 1.0 5.0 0.00 0.00 0.00 40 1017.2
20260510003021 65 226 1.0 3.0 0.00 0.00 0.00 45 1017.2
20260510001508 65 224 2.0 5.0 0.00 0.00 0.00 42 1017.2
20260510000006 66 163 0.0 2.0 0.00 0.00 0.00 39 1017.2
20260509234513 66 150 0.0 1.0 0.00 0.00 0.00 39 1017.2
20260509233005 65 160 0.0 3.0 0.00 0.00 0.00 40 1017.2
20260509231507 65 195 0.0 1.0 0.00 0.00 0.00 41 1017.3
20260509230011 65 128 0.0 1.0 0.00 0.00 0.00 42 1017.4
20260509224503 64 134 0.0 2.0 0.00 0.00 0.00 44 1017.4
20260509223003 66 185 1.0 3.0 0.00 0.00 0.00 39 1017.5
20260509221502 65 104 1.0 3.0 0.00 0.00 0.00 47 1017.6
20260509214558 65 226 1.0 4.0 0.00 0.00 0.00 39 1017.7
20260509213100 65 229 3.0 6.0 0.00 0.00 0.00 43 1017.8
20260509211603 66 195 2.0 3.0 0.00 0.00 0.00 40 1017.8
20260509210056 65 341 1.0 5.0 0.00 0.00 0.00 39 1017.9
20260509204554 66 1 0.0 3.0 0.00 0.00 0.00 38 1018.0
20260509203051 66 157 0.0 3.0 0.00 0.00 0.00 37 1018.0
20260509201552 66 214 2.0 4.0 0.00 0.00 0.00 38 1017.9
20260509200054 65 196 1.0 5.0 0.00 0.00 0.00 39 1017.9
20260509194546 63 224 0.0 1.0 0.00 0.00 0.00 40 1018.1
20260509193046 62 229 0.0 1.0 0.00 0.00 0.00 43 1018.2
20260509191546 61 217 0.0 1.0 0.00 0.00 0.00 41 1018.2
20260509190044 62 230 0.0 0.0 0.00 0.00 0.00 40 1018.3
20260509184543 62 244 0.0 0.0 0.00 0.00 0.00 40 1018.2
20260509183059 61 282 0.0 0.0 0.00 0.00 0.00 40 1018.2
20260509181554 61 309 0.0 0.0 0.00 0.00 0.00 39 1018.1
20260509180038 61 278 0.0 0.0 0.00 0.00 0.00 40 1018.0
20260509174537 61 307 0.0 4.0 0.00 0.00 0.00 42 1017.9